LAN321 SEQM-SPZO

Flight info

Callsign LAN321
Flight time 2h 11m
Altitude 35000
Route VURIS UP408 NILSA DCT DARKI
Aircraft A321/M-SDE3FGHIRWY/LB1

Departure

Time 2026-05-06 16:04
Airport Mariscal Sucre International Airport (SEQM)

Arrival

Time 2026-05-06 18:16
Airport Alejandro Velasco Astete International Airport (SPZO)
Time Latitude Longitude Altitude Speed Heading
2026-05-06 15:19 -0.12549 -78.35919 7841 ft 0 kts 266°
2026-05-06 15:50 -0.12548 -78.35903 7833 ft 4 kts 266°
2026-05-06 15:51 -0.12547 -78.35876 7834 ft 4 kts 267°
2026-05-06 15:51 -0.12546 -78.35853 7834 ft 4 kts 286°
2026-05-06 15:51 -0.12559 -78.35836 7835 ft 4 kts 344°
2026-05-06 15:51 -0.12576 -78.35833 7835 ft 0 kts 354°
2026-05-06 15:56 -0.12564 -78.35834 7838 ft 5 kts 355°
2026-05-06 15:57 -0.12519 -78.35836 7841 ft 7 kts 358°
2026-05-06 15:57 -0.12466 -78.35839 7834 ft 9 kts 358°
2026-05-06 15:57 -0.12393 -78.35836 7833 ft 12 kts 20°
2026-05-06 15:57 -0.12363 -78.35753 7834 ft 15 kts 86°
2026-05-06 15:58 -0.12353 -78.35649 7842 ft 13 kts 69°
2026-05-06 15:58 -0.12286 -78.35618 7842 ft 10 kts 359°
2026-05-06 15:58 -0.12203 -78.35622 7840 ft 15 kts 358°
2026-05-06 15:58 -0.12078 -78.35627 7834 ft 19 kts 357°
2026-05-06 15:59 -0.11941 -78.35634 7829 ft 20 kts 356°
2026-05-06 15:59 -0.11806 -78.35637 7823 ft 19 kts 359°
2026-05-06 15:59 -0.11674 -78.35642 7823 ft 19 kts
2026-05-06 15:59 -0.11540 -78.35649 7818 ft 20 kts 356°
2026-05-06 16:00 -0.11391 -78.35657 7814 ft 23 kts 357°
2026-05-06 16:00 -0.11216 -78.35658 7808 ft 27 kts
2026-05-06 16:00 -0.11018 -78.35673 7800 ft 30 kts 358°
2026-05-06 16:00 -0.10803 -78.35681 7785 ft 27 kts 358°
2026-05-06 16:01 -0.10635 -78.35691 7770 ft 18 kts 354°
2026-05-06 16:01 -0.10574 -78.35640 7774 ft 0 kts 95°
2026-05-06 16:01 -0.10574 -78.35637 7776 ft 1 kts 95°
2026-05-06 16:01 -0.10576 -78.35613 7773 ft 6 kts 94°
2026-05-06 16:02 -0.10577 -78.35562 7780 ft 9 kts 94°
2026-05-06 16:02 -0.10613 -78.35508 7779 ft 9 kts 155°
2026-05-06 16:02 -0.10665 -78.35512 7786 ft 6 kts 193°
2026-05-06 16:02 -0.10705 -78.35515 7788 ft 6 kts 181°
2026-05-06 16:03 -0.10883 -78.35506 7784 ft 54 kts 177°
2026-05-06 16:03 -0.11433 -78.35484 7817 ft 103 kts 177°
2026-05-06 16:03 -0.12324 -78.35448 7843 ft 153 kts 178°
2026-05-06 16:03 -0.13529 -78.35392 7894 ft 193 kts 176°
2026-05-06 16:04 -0.14911 -78.35304 8393 ft 196 kts 176°
2026-05-06 16:04 -0.16242 -78.35243 9230 ft 185 kts 176°
2026-05-06 16:04 -0.17461 -78.35229 9664 ft 172 kts 179°
2026-05-06 16:04 -0.18676 -78.35257 9888 ft 178 kts 180°
2026-05-06 16:05 -0.19928 -78.35265 10155 ft 183 kts 172°
2026-05-06 16:05 -0.21231 -78.35060 10277 ft 197 kts 166°
2026-05-06 16:05 -0.22649 -78.34735 10259 ft 228 kts 163°
2026-05-06 16:05 -0.24232 -78.34298 10735 ft 235 kts 161°
2026-05-06 16:06 -0.25730 -78.33822 11760 ft 217 kts 158°
2026-05-06 16:06 -0.27111 -78.33452 12761 ft 192 kts 165°
2026-05-06 16:06 -0.28420 -78.33299 13342 ft 192 kts 171°
2026-05-06 16:06 -0.29784 -78.33210 13687 ft 200 kts 170°
2026-05-06 16:07 -0.31198 -78.33114 14057 ft 208 kts 172°
2026-05-06 16:07 -0.32685 -78.32918 14220 ft 223 kts 164°
2026-05-06 16:07 -0.34249 -78.32551 14367 ft 241 kts 162°
2026-05-06 16:07 -0.35909 -78.32134 14477 ft 255 kts 161°
2026-05-06 16:08 -0.37683 -78.31704 14568 ft 269 kts 163°
2026-05-06 16:08 -0.39586 -78.31271 14681 ft 284 kts 163°
2026-05-06 16:08 -0.41535 -78.30853 14796 ft 296 kts 165°
2026-05-06 16:08 -0.43598 -78.30427 14916 ft 309 kts 165°
2026-05-06 16:09 -0.45753 -78.29996 15037 ft 323 kts 166°
2026-05-06 16:09 -0.48003 -78.29553 15158 ft 335 kts 165°
2026-05-06 16:09 -0.50330 -78.29099 15263 ft 346 kts 166°
2026-05-06 16:09 -0.52714 -78.28632 15429 ft 352 kts 165°
2026-05-06 16:10 -0.55103 -78.28164 15931 ft 349 kts 165°
2026-05-06 16:10 -0.57482 -78.27700 16462 ft 347 kts 165°
2026-05-06 16:10 -0.59843 -78.27235 16981 ft 345 kts 165°
2026-05-06 16:10 -0.62194 -78.26769 17529 ft 343 kts 165°
2026-05-06 16:11 -0.64527 -78.26306 18074 ft 341 kts 165°
2026-05-06 16:11 -0.66847 -78.25848 18636 ft 338 kts 165°
2026-05-06 16:11 -0.69140 -78.25396 19120 ft 334 kts 165°
2026-05-06 16:11 -0.71406 -78.24950 19605 ft 330 kts 165°
2026-05-06 16:12 -0.72891 -78.24656 19927 ft 328 kts 165°
2026-05-06 16:12 -0.75857 -78.24069 20601 ft 321 kts 165°
2026-05-06 16:12 -0.77298 -78.23783 20933 ft 317 kts 165°
2026-05-06 16:12 -0.79451 -78.23357 21331 ft 315 kts 165°
2026-05-06 16:13 -0.81625 -78.22922 21470 ft 323 kts 165°
2026-05-06 16:13 -0.83858 -78.22474 21591 ft 331 kts 165°
2026-05-06 16:13 -0.86137 -78.22017 21705 ft 339 kts 165°
2026-05-06 16:13 -0.88477 -78.21548 21824 ft 347 kts 165°
2026-05-06 16:14 -0.90874 -78.21071 21943 ft 355 kts 165°
2026-05-06 16:14 -0.93322 -78.20585 22065 ft 363 kts 166°
2026-05-06 16:14 -0.95820 -78.20093 22178 ft 370 kts 166°
2026-05-06 16:14 -0.98364 -78.19593 22287 ft 375 kts 166°
2026-05-06 16:15 -1.00957 -78.19083 22411 ft 383 kts 166°
2026-05-06 16:15 -1.03590 -78.18566 22531 ft 390 kts 166°
2026-05-06 16:15 -1.06283 -78.18035 22644 ft 397 kts 166°
2026-05-06 16:15 -1.09026 -78.17492 22767 ft 404 kts 166°
2026-05-06 16:16 -1.11792 -78.16903 22880 ft 409 kts 162°
2026-05-06 16:16 -1.14532 -78.16060 23000 ft 414 kts 160°
2026-05-06 16:16 -1.17294 -78.15182 23112 ft 420 kts 160°
2026-05-06 16:16 -1.20096 -78.14295 23213 ft 425 kts 160°
2026-05-06 16:17 -1.22935 -78.13399 23353 ft 430 kts 160°
2026-05-06 16:17 -1.25804 -78.12492 23465 ft 436 kts 160°
2026-05-06 16:17 -1.28711 -78.11573 23581 ft 440 kts 160°
2026-05-06 16:17 -1.31644 -78.10645 23722 ft 445 kts 160°
2026-05-06 16:18 -1.34614 -78.09706 23837 ft 449 kts 160°
2026-05-06 16:18 -1.37611 -78.08757 23950 ft 453 kts 160°
2026-05-06 16:18 -1.40633 -78.07799 24057 ft 457 kts 160°
2026-05-06 16:18 -1.43673 -78.06837 24168 ft 461 kts 160°
2026-05-06 16:19 -1.46742 -78.05869 24290 ft 464 kts 160°
2026-05-06 16:19 -1.49828 -78.04894 24461 ft 465 kts 160°
2026-05-06 16:19 -1.52853 -78.03750 24637 ft 464 kts 153°
2026-05-06 16:19 -1.55739 -78.02389 24806 ft 465 kts 153°
2026-05-06 16:20 -1.58670 -78.01005 24985 ft 467 kts 153°
2026-05-06 16:20 -1.61600 -77.99620 25167 ft 468 kts 152°
2026-05-06 16:20 -1.64555 -77.98226 25335 ft 469 kts 153°
2026-05-06 16:20 -1.67512 -77.96831 25492 ft 470 kts 152°
2026-05-06 16:21 -1.70476 -77.95431 25652 ft 471 kts 152°
2026-05-06 16:21 -1.73442 -77.94031 25803 ft 472 kts 152°
2026-05-06 16:21 -1.76417 -77.92625 25958 ft 474 kts 152°
2026-05-06 16:21 -1.79400 -77.91215 26143 ft 475 kts 153°
2026-05-06 16:22 -1.82392 -77.89801 26299 ft 476 kts 152°
2026-05-06 16:22 -1.85391 -77.88387 26433 ft 477 kts 153°
2026-05-06 16:22 -1.88397 -77.86971 26553 ft 478 kts 153°
2026-05-06 16:22 -1.91407 -77.85552 26674 ft 479 kts 152°
2026-05-06 16:23 -1.94418 -77.84131 26853 ft 478 kts 152°
2026-05-06 16:23 -1.97423 -77.82714 27038 ft 477 kts 152°
2026-05-06 16:23 -2.00423 -77.81298 27210 ft 477 kts 152°
2026-05-06 16:23 -2.03384 -77.79900 27418 ft 477 kts 152°
2026-05-06 16:24 -2.06380 -77.78486 27626 ft 476 kts 152°
2026-05-06 16:24 -2.09379 -77.77069 27864 ft 476 kts 152°
2026-05-06 16:24 -2.12371 -77.75655 28137 ft 475 kts 152°
2026-05-06 16:24 -2.15354 -77.74245 28396 ft 474 kts 152°
2026-05-06 16:25 -2.18334 -77.72836 28592 ft 474 kts 152°
2026-05-06 16:25 -2.21310 -77.71430 28787 ft 473 kts 152°
2026-05-06 16:25 -2.24289 -77.70024 28960 ft 473 kts 152°
2026-05-06 16:25 -2.27265 -77.68620 29140 ft 473 kts 152°
2026-05-06 16:26 -2.30241 -77.67217 29336 ft 473 kts 152°
2026-05-06 16:26 -2.33217 -77.65812 29506 ft 472 kts 152°
2026-05-06 16:26 -2.36183 -77.64412 29682 ft 472 kts 152°
2026-05-06 16:26 -2.39153 -77.63009 29862 ft 472 kts 152°
2026-05-06 16:27 -2.42122 -77.61604 30071 ft 471 kts 152°
2026-05-06 16:27 -2.45081 -77.60202 30254 ft 471 kts 152°
2026-05-06 16:27 -2.48043 -77.58800 30401 ft 471 kts 152°
2026-05-06 16:27 -2.51001 -77.57402 30555 ft 471 kts 152°
2026-05-06 16:28 -2.53967 -77.56005 30697 ft 470 kts 152°
2026-05-06 16:28 -2.56923 -77.54615 30866 ft 470 kts 152°
2026-05-06 16:28 -2.59884 -77.53222 31011 ft 470 kts 152°
2026-05-06 16:28 -2.62840 -77.51824 31177 ft 470 kts 152°
2026-05-06 16:29 -2.65799 -77.50422 31369 ft 470 kts 152°
2026-05-06 16:29 -2.68745 -77.49024 31540 ft 469 kts 152°
2026-05-06 16:29 -2.71700 -77.47624 31702 ft 469 kts 152°
2026-05-06 16:29 -2.74609 -77.46246 31860 ft 469 kts 152°
2026-05-06 16:30 -2.77555 -77.44852 32010 ft 469 kts 152°
2026-05-06 16:30 -2.79546 -77.43910 32116 ft 469 kts 152°
2026-05-06 16:30 -2.83450 -77.42066 32331 ft 468 kts 152°
2026-05-06 16:30 -2.86398 -77.40673 32488 ft 468 kts 152°
2026-05-06 16:31 -2.89340 -77.39287 32643 ft 468 kts 152°
2026-05-06 16:31 -2.92283 -77.37901 32802 ft 468 kts 152°
2026-05-06 16:31 -2.95223 -77.36513 32973 ft 467 kts 152°
2026-05-06 16:31 -2.98159 -77.35124 33122 ft 467 kts 152°
2026-05-06 16:32 -3.01096 -77.33733 33274 ft 467 kts 152°
2026-05-06 16:32 -3.04032 -77.32344 33444 ft 466 kts 152°
2026-05-06 16:32 -3.06966 -77.30961 33601 ft 466 kts 152°
2026-05-06 16:32 -3.09898 -77.29581 33747 ft 466 kts 152°
2026-05-06 16:33 -3.12832 -77.28198 33906 ft 466 kts 153°
2026-05-06 16:33 -3.15758 -77.26816 34038 ft 465 kts 152°
2026-05-06 16:33 -3.18689 -77.25430 34173 ft 465 kts 153°
2026-05-06 16:34 -3.24541 -77.22669 34427 ft 465 kts 153°
2026-05-06 16:34 -3.27464 -77.21285 34549 ft 465 kts 153°
2026-05-06 16:34 -3.30383 -77.19901 34659 ft 465 kts 153°
2026-05-06 16:34 -3.33303 -77.18515 34777 ft 465 kts 153°
2026-05-06 16:35 -3.36232 -77.17130 34901 ft 465 kts 153°
2026-05-06 16:35 -3.39151 -77.15755 35033 ft 464 kts 153°
2026-05-06 16:35 -3.42083 -77.14374 35074 ft 466 kts 153°
2026-05-06 16:36 -3.47958 -77.11603 35074 ft 467 kts 153°
2026-05-06 16:36 -3.53826 -77.08826 35075 ft 467 kts 153°
2026-05-06 16:37 -3.59710 -77.06029 35070 ft 468 kts 153°
2026-05-06 16:37 -3.65593 -77.03246 35072 ft 468 kts 153°
2026-05-06 16:38 -3.71482 -77.00465 35077 ft 468 kts 153°
2026-05-06 16:38 -3.77379 -76.97682 35091 ft 468 kts 154°
2026-05-06 16:39 -3.83222 -76.94914 35092 ft 468 kts 154°
2026-05-06 16:39 -3.89098 -76.92128 35088 ft 467 kts 154°
2026-05-06 16:40 -3.94978 -76.89347 35090 ft 467 kts 154°
2026-05-06 16:40 -4.00866 -76.86572 35090 ft 468 kts 154°
2026-05-06 16:41 -4.06755 -76.83780 35087 ft 468 kts 154°
2026-05-06 16:41 -4.12635 -76.80988 35086 ft 467 kts 154°
2026-05-06 16:42 -4.18513 -76.78198 35087 ft 467 kts 154°
2026-05-06 16:42 -4.24394 -76.75410 35082 ft 468 kts 154°
2026-05-06 16:43 -4.30278 -76.72635 35084 ft 468 kts 154°
2026-05-06 16:43 -4.36123 -76.69870 35083 ft 468 kts 154°
2026-05-06 16:44 -4.42005 -76.67078 35080 ft 468 kts 154°
2026-05-06 16:44 -4.47889 -76.64287 35078 ft 468 kts 154°
2026-05-06 16:45 -4.53771 -76.61501 35074 ft 468 kts 154°
2026-05-06 16:45 -4.59657 -76.58719 35076 ft 468 kts 154°
2026-05-06 16:46 -4.65543 -76.55926 35076 ft 468 kts 154°
2026-05-06 16:46 -4.71424 -76.53126 35074 ft 468 kts 154°
2026-05-06 16:47 -4.77304 -76.50331 35074 ft 468 kts 154°
2026-05-06 16:47 -4.83201 -76.47537 35071 ft 468 kts 154°
2026-05-06 16:48 -4.89094 -76.44745 35075 ft 469 kts 154°
2026-05-06 16:48 -4.94984 -76.41949 35075 ft 469 kts 154°
2026-05-06 16:49 -5.00871 -76.39153 35077 ft 469 kts 154°
2026-05-06 16:49 -5.06786 -76.36344 35077 ft 469 kts 154°
2026-05-06 16:50 -5.12650 -76.33562 35072 ft 469 kts 154°
2026-05-06 16:50 -5.18554 -76.30758 35075 ft 469 kts 154°
2026-05-06 16:51 -5.24461 -76.27945 35075 ft 470 kts 154°
2026-05-06 16:51 -5.30363 -76.25140 35076 ft 470 kts 154°
2026-05-06 16:52 -5.36265 -76.22302 35077 ft 470 kts 152°
2026-05-06 16:52 -5.42026 -76.19205 35076 ft 470 kts 150°
2026-05-06 16:53 -5.47730 -76.15990 35068 ft 470 kts 150°
2026-05-06 16:53 -5.53456 -76.12817 35070 ft 471 kts 150°
2026-05-06 16:54 -5.59221 -76.09692 35073 ft 471 kts 151°
2026-05-06 16:54 -5.64997 -76.06571 35073 ft 472 kts 150°
2026-05-06 16:55 -5.70728 -76.03453 35076 ft 472 kts 150°
2026-05-06 16:55 -5.76504 -76.00301 35077 ft 472 kts 150°
2026-05-06 16:56 -5.82285 -75.97152 35075 ft 473 kts 150°
2026-05-06 16:56 -5.88073 -75.94004 35075 ft 473 kts 150°
2026-05-06 16:57 -5.93859 -75.90853 35074 ft 473 kts 150°
2026-05-06 16:57 -5.99649 -75.87701 35071 ft 474 kts 150°
2026-05-06 16:58 -6.05441 -75.84534 35070 ft 474 kts 150°
2026-05-06 16:58 -6.11247 -75.81360 35070 ft 475 kts 150°
2026-05-06 16:59 -6.17062 -75.78190 35069 ft 476 kts 150°
2026-05-06 16:59 -6.22877 -75.75018 35073 ft 476 kts 150°
2026-05-06 17:00 -6.28700 -75.71845 35078 ft 476 kts 150°
2026-05-06 17:00 -6.33537 -75.69203 35081 ft 476 kts 150°
2026-05-06 17:01 -6.40300 -75.65508 35085 ft 476 kts 150°
2026-05-06 17:01 -6.46115 -75.62333 35087 ft 476 kts 150°
2026-05-06 17:02 -6.50989 -75.59671 35086 ft 476 kts 150°
2026-05-06 17:02 -6.56804 -75.56493 35090 ft 476 kts 150°
2026-05-06 17:03 -6.62577 -75.53338 35091 ft 476 kts 150°
2026-05-06 17:03 -6.68394 -75.50154 35092 ft 476 kts 150°
2026-05-06 17:04 -6.74203 -75.46973 35095 ft 476 kts 150°
2026-05-06 17:04 -6.80022 -75.43795 35084 ft 476 kts 150°
2026-05-06 17:05 -6.85842 -75.40617 35084 ft 476 kts 150°
2026-05-06 17:05 -6.91662 -75.37423 35083 ft 477 kts 150°
2026-05-06 17:06 -6.97490 -75.34237 35086 ft 477 kts 150°
2026-05-06 17:06 -7.03332 -75.31044 35080 ft 478 kts 150°
2026-05-06 17:07 -7.09134 -75.27861 35086 ft 478 kts 150°
2026-05-06 17:07 -7.14983 -75.24657 35086 ft 479 kts 150°
2026-05-06 17:08 -7.20847 -75.21447 35075 ft 479 kts 150°
2026-05-06 17:08 -7.26707 -75.18228 35077 ft 480 kts 150°
2026-05-06 17:09 -7.32572 -75.15005 35084 ft 480 kts 150°
2026-05-06 17:09 -7.38439 -75.11787 35056 ft 480 kts 150°
2026-05-06 17:10 -7.44309 -75.08566 35057 ft 481 kts 150°
2026-05-06 17:10 -7.50148 -75.05366 35063 ft 481 kts 150°
2026-05-06 17:11 -7.56031 -75.02141 35063 ft 481 kts 150°
2026-05-06 17:11 -7.61910 -74.98904 35059 ft 481 kts 150°
2026-05-06 17:12 -7.67796 -74.95674 35060 ft 482 kts 150°
2026-05-06 17:12 -7.73683 -74.92441 35061 ft 481 kts 150°
2026-05-06 17:13 -7.79558 -74.89200 35056 ft 481 kts 150°
2026-05-06 17:13 -7.85439 -74.85960 35047 ft 482 kts 150°
2026-05-06 17:14 -7.91287 -74.82753 35053 ft 482 kts 150°
2026-05-06 17:14 -7.97172 -74.79522 35045 ft 482 kts 150°
2026-05-06 17:15 -8.03053 -74.76283 35053 ft 482 kts 150°
2026-05-06 17:15 -8.08940 -74.73034 35047 ft 482 kts 150°
2026-05-06 17:16 -8.14831 -74.69779 35054 ft 482 kts 150°
2026-05-06 17:16 -8.20724 -74.66530 35067 ft 483 kts 150°
2026-05-06 17:17 -8.26625 -74.63278 35075 ft 483 kts 150°
2026-05-06 17:17 -8.32493 -74.60044 35079 ft 484 kts 150°
2026-05-06 17:18 -8.38400 -74.56784 35078 ft 484 kts 149°
2026-05-06 17:18 -8.44236 -74.53398 35077 ft 484 kts 148°
2026-05-06 17:19 -8.50005 -74.49900 35070 ft 484 kts 147°
2026-05-06 17:19 -8.55791 -74.46412 35060 ft 484 kts 148°
2026-05-06 17:20 -8.61596 -74.42960 35053 ft 484 kts 148°
2026-05-06 17:20 -8.67412 -74.39515 35044 ft 485 kts 148°
2026-05-06 17:21 -8.73222 -74.36070 35037 ft 485 kts 148°
2026-05-06 17:21 -8.79034 -74.32610 35041 ft 485 kts 148°
2026-05-06 17:22 -8.84812 -74.29167 35037 ft 485 kts 148°
2026-05-06 17:22 -8.90626 -74.25711 35034 ft 485 kts 148°
2026-05-06 17:23 -8.96445 -74.22249 35034 ft 485 kts 148°
2026-05-06 17:23 -9.02260 -74.18779 35033 ft 485 kts 148°
2026-05-06 17:24 -9.08074 -74.15309 35029 ft 485 kts 148°
2026-05-06 17:24 -9.13890 -74.11847 35032 ft 485 kts 148°
2026-05-06 17:25 -9.19717 -74.08377 35030 ft 486 kts 148°
2026-05-06 17:25 -9.25536 -74.04905 35026 ft 486 kts 148°
2026-05-06 17:26 -9.31363 -74.01428 35029 ft 486 kts 148°
2026-05-06 17:26 -9.37179 -73.97950 35029 ft 486 kts 148°
2026-05-06 17:27 -9.43000 -73.94465 35027 ft 486 kts 148°
2026-05-06 17:27 -9.48821 -73.90990 35025 ft 486 kts 148°
2026-05-06 17:28 -9.54604 -73.87534 35024 ft 486 kts 148°
2026-05-06 17:28 -9.60424 -73.84057 35025 ft 486 kts 148°
2026-05-06 17:29 -9.66511 -73.81106 35022 ft 487 kts 162°
2026-05-06 17:29 -9.73064 -73.79442 35014 ft 479 kts 166°
2026-05-06 17:30 -9.79465 -73.77889 34910 ft 469 kts 166°
2026-05-06 17:30 -9.82639 -73.77117 34379 ft 469 kts 166°
2026-05-06 17:30 -9.85812 -73.76342 33764 ft 470 kts 166°
2026-05-06 17:30 -9.88995 -73.75562 33080 ft 471 kts 165°
2026-05-06 17:31 -9.92185 -73.74779 32406 ft 472 kts 165°
2026-05-06 17:31 -9.95378 -73.73993 31736 ft 473 kts 165°
2026-05-06 17:31 -9.98571 -73.73206 31068 ft 474 kts 165°
2026-05-06 17:31 -10.01783 -73.72418 30392 ft 474 kts 165°
2026-05-06 17:32 -10.04992 -73.71634 29655 ft 475 kts 165°
2026-05-06 17:32 -10.08212 -73.70851 28861 ft 476 kts 165°
2026-05-06 17:32 -10.11429 -73.70066 28067 ft 476 kts 165°
2026-05-06 17:32 -10.14649 -73.69278 27353 ft 475 kts 165°
2026-05-06 17:33 -10.17861 -73.68488 27083 ft 476 kts 165°
2026-05-06 17:33 -10.21084 -73.67697 26970 ft 476 kts 165°
2026-05-06 17:33 -10.24313 -73.66907 27001 ft 477 kts 165°
2026-05-06 17:33 -10.27549 -73.66112 26998 ft 477 kts 165°
2026-05-06 17:34 -10.30774 -73.65316 27000 ft 478 kts 165°
2026-05-06 17:34 -10.33963 -73.64530 27000 ft 478 kts 165°
2026-05-06 17:34 -10.37239 -73.63729 26999 ft 478 kts 165°
2026-05-06 17:34 -10.40469 -73.62938 26999 ft 478 kts 166°
2026-05-06 17:35 -10.43704 -73.62146 26996 ft 478 kts 166°
2026-05-06 17:35 -10.46933 -73.61357 26997 ft 478 kts 165°
2026-05-06 17:35 -10.50172 -73.60562 26996 ft 478 kts 165°
2026-05-06 17:36 -10.56636 -73.58966 26999 ft 478 kts 165°
2026-05-06 17:36 -10.59871 -73.58167 26994 ft 478 kts 165°
2026-05-06 17:36 -10.63104 -73.57371 26994 ft 478 kts 166°
2026-05-06 17:36 -10.66342 -73.56578 26993 ft 478 kts 166°
2026-05-06 17:37 -10.69580 -73.55784 26994 ft 478 kts 166°
2026-05-06 17:37 -10.72819 -73.54988 26989 ft 478 kts 166°
2026-05-06 17:37 -10.76053 -73.54192 26990 ft 478 kts 166°
2026-05-06 17:37 -10.79248 -73.53405 26991 ft 479 kts 166°
2026-05-06 17:38 -10.82483 -73.52610 26992 ft 479 kts 166°
2026-05-06 17:38 -10.85719 -73.51814 26986 ft 479 kts 165°
2026-05-06 17:38 -10.88952 -73.51015 26985 ft 479 kts 165°
2026-05-06 17:38 -10.92189 -73.50215 26987 ft 479 kts 166°
2026-05-06 17:39 -10.95425 -73.49415 26986 ft 479 kts 166°
2026-05-06 17:39 -10.98667 -73.48616 26981 ft 478 kts 166°
2026-05-06 17:39 -11.01899 -73.47820 26984 ft 478 kts 166°
2026-05-06 17:39 -11.05132 -73.47023 26983 ft 478 kts 166°
2026-05-06 17:40 -11.08371 -73.46222 26984 ft 478 kts 166°
2026-05-06 17:40 -11.11601 -73.45428 26983 ft 478 kts 166°
2026-05-06 17:40 -11.14834 -73.44635 26981 ft 478 kts 166°
2026-05-06 17:40 -11.18065 -73.43838 26984 ft 478 kts 166°
2026-05-06 17:41 -11.21300 -73.43040 26990 ft 478 kts 166°
2026-05-06 17:41 -11.24528 -73.42241 26991 ft 478 kts 166°
2026-05-06 17:41 -11.27764 -73.41439 26992 ft 478 kts 166°
2026-05-06 17:41 -11.30990 -73.40638 26993 ft 478 kts 166°
2026-05-06 17:42 -11.34222 -73.39836 26994 ft 478 kts 166°
2026-05-06 17:42 -11.37445 -73.39036 26998 ft 477 kts 166°
2026-05-06 17:42 -11.40680 -73.38238 26997 ft 477 kts 166°
2026-05-06 17:42 -11.43914 -73.37442 26999 ft 478 kts 166°
2026-05-06 17:43 -11.47139 -73.36646 27003 ft 478 kts 166°
2026-05-06 17:43 -11.50373 -73.35846 27007 ft 478 kts 166°
2026-05-06 17:43 -11.53603 -73.35048 27005 ft 478 kts 166°
2026-05-06 17:43 -11.56835 -73.34250 27012 ft 478 kts 166°
2026-05-06 17:44 -11.60069 -73.33450 27014 ft 478 kts 166°
2026-05-06 17:44 -11.63295 -73.32652 27018 ft 478 kts 166°
2026-05-06 17:44 -11.66531 -73.31852 27020 ft 478 kts 166°
2026-05-06 17:44 -11.69755 -73.31054 27023 ft 478 kts 166°
2026-05-06 17:45 -11.72993 -73.30250 27022 ft 478 kts 166°
2026-05-06 17:45 -11.76214 -73.29447 27019 ft 477 kts 166°
2026-05-06 17:45 -11.79447 -73.28642 27022 ft 477 kts 166°
2026-05-06 17:45 -11.82675 -73.27841 27025 ft 477 kts 166°
2026-05-06 17:46 -11.85899 -73.27045 27022 ft 477 kts 166°
2026-05-06 17:46 -11.89124 -73.26245 27024 ft 477 kts 166°
2026-05-06 17:46 -11.92350 -73.25447 27024 ft 477 kts 166°
2026-05-06 17:46 -11.95577 -73.24647 27026 ft 477 kts 166°
2026-05-06 17:47 -11.98812 -73.23845 27021 ft 477 kts 166°
2026-05-06 17:47 -12.01995 -73.23054 27024 ft 477 kts 166°
2026-05-06 17:47 -12.05224 -73.22251 27024 ft 477 kts 166°
2026-05-06 17:47 -12.08494 -73.21438 27029 ft 478 kts 166°
2026-05-06 17:48 -12.11685 -73.20645 27028 ft 478 kts 166°
2026-05-06 17:48 -12.14920 -73.19841 27024 ft 478 kts 166°
2026-05-06 17:48 -12.18149 -73.19041 27027 ft 478 kts 166°
2026-05-06 17:48 -12.21377 -73.18239 27026 ft 478 kts 166°
2026-05-06 17:49 -12.24619 -73.17429 27029 ft 479 kts 166°
2026-05-06 17:49 -12.27851 -73.16621 27030 ft 479 kts 166°
2026-05-06 17:49 -12.31092 -73.15815 27029 ft 479 kts 166°
2026-05-06 17:49 -12.34330 -73.15012 27032 ft 479 kts 166°
2026-05-06 17:50 -12.37572 -73.14207 27029 ft 479 kts 166°
2026-05-06 17:50 -12.40809 -73.13403 27026 ft 479 kts 166°
2026-05-06 17:50 -12.44048 -73.12598 27028 ft 479 kts 166°
2026-05-06 17:50 -12.47287 -73.11792 27031 ft 480 kts 166°
2026-05-06 17:51 -12.50531 -73.10981 27032 ft 479 kts 166°
2026-05-06 17:51 -12.53773 -73.10170 27038 ft 480 kts 166°
2026-05-06 17:51 -12.57012 -73.09358 27041 ft 479 kts 166°
2026-05-06 17:51 -12.60254 -73.08545 27042 ft 479 kts 166°
2026-05-06 17:52 -12.63493 -73.07735 27046 ft 479 kts 166°
2026-05-06 17:52 -12.66731 -73.06927 27052 ft 480 kts 166°
2026-05-06 17:52 -12.69931 -73.06125 27060 ft 480 kts 166°
2026-05-06 17:52 -12.73169 -73.05317 27064 ft 480 kts 166°
2026-05-06 17:53 -12.76417 -73.04508 27075 ft 479 kts 166°
2026-05-06 17:53 -12.79659 -73.03700 27081 ft 479 kts 166°
2026-05-06 17:53 -12.82895 -73.02893 27089 ft 479 kts 166°
2026-05-06 17:53 -12.86140 -73.02084 27097 ft 479 kts 166°
2026-05-06 17:54 -12.89370 -73.01274 27102 ft 479 kts 166°
2026-05-06 17:54 -12.91557 -73.00726 26813 ft 476 kts 166°
2026-05-06 17:54 -12.95828 -72.99655 26378 ft 478 kts 166°
2026-05-06 17:54 -12.99057 -72.98846 26151 ft 479 kts 166°
2026-05-06 17:55 -13.01210 -72.98306 26007 ft 480 kts 166°
2026-05-06 17:55 -13.04448 -72.97497 25786 ft 480 kts 166°
2026-05-06 17:55 -13.07696 -72.96690 25550 ft 480 kts 166°
2026-05-06 17:55 -13.10942 -72.95880 25320 ft 480 kts 166°
2026-05-06 17:56 -13.14194 -72.95066 25097 ft 480 kts 166°
2026-05-06 17:56 -13.17435 -72.94247 24876 ft 481 kts 166°
2026-05-06 17:56 -13.20681 -72.93428 24647 ft 480 kts 166°
2026-05-06 17:56 -13.23933 -72.92612 24421 ft 480 kts 166°
2026-05-06 17:57 -13.27173 -72.91803 24207 ft 479 kts 166°
2026-05-06 17:57 -13.30401 -72.90994 23991 ft 474 kts 167°
2026-05-06 17:57 -13.33559 -72.90204 23770 ft 459 kts 167°
2026-05-06 17:57 -13.36574 -72.89332 23517 ft 444 kts 159°
2026-05-06 17:58 -13.39294 -72.87935 23260 ft 431 kts 147°
2026-05-06 17:58 -13.41604 -72.86049 23004 ft 419 kts 135°
2026-05-06 17:58 -13.43448 -72.83796 22743 ft 407 kts 124°
2026-05-06 17:58 -13.44795 -72.81326 22495 ft 397 kts 113°
2026-05-06 17:59 -13.45660 -72.78678 22248 ft 386 kts 102°
2026-05-06 17:59 -13.46029 -72.75995 22067 ft 374 kts 94°
2026-05-06 17:59 -13.46231 -72.73362 21826 ft 365 kts 94°
2026-05-06 17:59 -13.46438 -72.70785 21570 ft 359 kts 95°
2026-05-06 18:00 -13.46647 -72.68239 21322 ft 356 kts 95°
2026-05-06 18:00 -13.46852 -72.65714 21086 ft 354 kts 95°
2026-05-06 18:00 -13.47053 -72.63202 20911 ft 351 kts 94°
2026-05-06 18:00 -13.47252 -72.60707 21092 ft 352 kts 94°
2026-05-06 18:01 -13.47452 -72.58190 21141 ft 353 kts 94°
2026-05-06 18:01 -13.47651 -72.55679 21143 ft 354 kts 94°
2026-05-06 18:01 -13.47850 -72.53156 21133 ft 354 kts 94°
2026-05-06 18:01 -13.48050 -72.50632 21034 ft 355 kts 94°
2026-05-06 18:02 -13.48250 -72.48115 20796 ft 353 kts 94°
2026-05-06 18:02 -13.48446 -72.45611 20555 ft 351 kts 94°
2026-05-06 18:02 -13.48640 -72.43119 20319 ft 349 kts 94°
2026-05-06 18:02 -13.48832 -72.40634 20081 ft 348 kts 94°
2026-05-06 18:03 -13.49024 -72.38166 19908 ft 345 kts 94°
2026-05-06 18:03 -13.49217 -72.35705 20072 ft 347 kts 94°
2026-05-06 18:03 -13.49414 -72.33228 19962 ft 348 kts 94°
2026-05-06 18:03 -13.49607 -72.30788 19736 ft 346 kts 94°
2026-05-06 18:04 -13.49800 -72.28331 19543 ft 345 kts 94°
2026-05-06 18:04 -13.49991 -72.25879 19349 ft 343 kts 94°
2026-05-06 18:04 -13.50179 -72.23442 19163 ft 342 kts 94°
2026-05-06 18:04 -13.50363 -72.21017 18988 ft 340 kts 94°
2026-05-06 18:05 -13.50548 -72.18599 18798 ft 338 kts 94°
2026-05-06 18:05 -13.50733 -72.16196 18611 ft 337 kts 94°
2026-05-06 18:05 -13.50920 -72.13802 18394 ft 335 kts 94°
2026-05-06 18:05 -13.51107 -72.11415 18178 ft 334 kts 94°
2026-05-06 18:06 -13.51292 -72.09041 17963 ft 333 kts 94°
2026-05-06 18:06 -13.51474 -72.06674 17743 ft 332 kts 94°
2026-05-06 18:06 -13.51655 -72.04310 17538 ft 331 kts 94°
2026-05-06 18:06 -13.51838 -72.01965 17201 ft 328 kts 95°
2026-05-06 18:07 -13.52250 -71.99661 16659 ft 330 kts 105°
2026-05-06 18:07 -13.52853 -71.97370 16152 ft 331 kts 105°
2026-05-06 18:07 -13.53450 -71.95100 15769 ft 328 kts 105°
2026-05-06 18:07 -13.54044 -71.92837 15340 ft 327 kts 105°
2026-05-06 18:08 -13.54632 -71.90592 14883 ft 323 kts 105°
2026-05-06 18:08 -13.55208 -71.88377 14113 ft 320 kts 105°
2026-05-06 18:08 -13.55778 -71.86177 13390 ft 316 kts 105°
2026-05-06 18:08 -13.56324 -71.84058 13115 ft 298 kts 103°
2026-05-06 18:09 -13.56693 -71.81999 12889 ft 282 kts 98°
2026-05-06 18:09 -13.56978 -71.80062 13006 ft 276 kts 98°
2026-05-06 18:09 -13.57218 -71.78103 13278 ft 269 kts 95°
2026-05-06 18:09 -13.57297 -71.76231 13686 ft 262 kts 88°
2026-05-06 18:10 -13.57147 -71.74388 14028 ft 257 kts 82°
2026-05-06 18:10 -13.57071 -71.72499 13885 ft 272 kts 98°
2026-05-06 18:10 -13.57675 -71.70653 13892 ft 277 kts 123°
2026-05-06 18:10 -13.59034 -71.69255 13920 ft 281 kts 150°
2026-05-06 18:11 -13.60899 -71.68686 13977 ft 283 kts 179°
2026-05-06 18:11 -13.62820 -71.69098 13981 ft 285 kts 206°
2026-05-06 18:11 -13.64396 -71.70299 13734 ft 284 kts 232°
2026-05-06 18:11 -13.65182 -71.72113 13449 ft 279 kts 265°
2026-05-06 18:12 -13.64897 -71.74051 13213 ft 275 kts 294°
2026-05-06 18:12 -13.63709 -71.75547 13289 ft 275 kts 328°
2026-05-06 18:12 -13.61902 -71.76119 13128 ft 276 kts 356°
2026-05-06 18:12 -13.59991 -71.76276 13029 ft 275 kts 344°
2026-05-06 18:13 -13.58381 -71.77277 12994 ft 274 kts 310°
2026-05-06 18:13 -13.57517 -71.78991 12925 ft 278 kts 289°
2026-05-06 18:13 -13.56868 -71.80885 12810 ft 277 kts 290°
2026-05-06 18:13 -13.56231 -71.82748 12576 ft 275 kts 290°
2026-05-06 18:14 -13.55613 -71.84564 12115 ft 267 kts 290°
2026-05-06 18:14 -13.55027 -71.86282 11763 ft 244 kts 290°
2026-05-06 18:14 -13.54481 -71.87828 11459 ft 218 kts 288°
2026-05-06 18:14 -13.54143 -71.89246 11228 ft 195 kts 277°
2026-05-06 18:15 -13.53940 -71.90569 10952 ft 179 kts 280°
2026-05-06 18:15 -13.53788 -71.91778 10775 ft 167 kts 275°
2026-05-06 18:15 -13.53668 -71.92930 10747 ft 151 kts 275°
2026-05-06 18:15 -13.53591 -71.93716 10798 ft 67 kts 276°
2026-05-06 18:16 -13.53555 -71.94067 10813 ft 46 kts 276°
2026-05-06 18:16 -13.53535 -71.94308 10815 ft 13 kts 256°
2026-05-06 18:16 -13.53609 -71.94348 10815 ft 9 kts 186°
2026-05-06 18:16 -13.53641 -71.94353 10816 ft 5 kts 196°
2026-05-06 18:17 -13.53664 -71.94392 10817 ft 9 kts 266°
2026-05-06 18:17 -13.53675 -71.94442 10817 ft 1 kts 212°
2026-05-06 18:17 -13.53700 -71.94435 10817 ft 7 kts 156°
2026-05-06 18:17 -13.53736 -71.94411 10817 ft 2 kts 146°
2026-05-06 18:18 -13.53739 -71.94409 10817 ft 0 kts 146°
2026-05-06 18:20 -13.59559 -71.76420 13024 ft 275 kts 336°
2026-05-06 18:20 -13.58103 -71.77653 12997 ft 274 kts 302°
2026-05-06 18:20 -13.57353 -71.79467 12898 ft 278 kts 289°
2026-05-06 18:21 -13.56713 -71.81338 12784 ft 277 kts 291°
2026-05-06 18:21 -13.56079 -71.83194 12479 ft 274 kts 290°
2026-05-06 18:21 -13.55460 -71.85014 12007 ft 261 kts 290°
2026-05-06 18:21 -13.54883 -71.86690 11688 ft 236 kts 290°
2026-05-06 18:22 -13.54366 -71.88200 11407 ft 211 kts 287°
2026-05-06 18:22 -13.54098 -71.89597 11155 ft 190 kts 277°
2026-05-06 18:22 -13.53886 -71.90879 10901 ft 175 kts 278°
2026-05-06 18:22 -13.53757 -71.92080 10752 ft 166 kts 275°
2026-05-06 18:23 -13.53644 -71.93188 10759 ft 132 kts 276°
2026-05-06 18:23 -13.53580 -71.93817 10801 ft 49 kts 276°
2026-05-06 18:23 -13.53548 -71.94148 10813 ft 45 kts 276°
2026-05-06 18:23 -13.53550 -71.94328 10814 ft 14 kts 228°
2026-05-06 18:24 -13.53622 -71.94349 10815 ft 2 kts 186°
2026-05-06 18:24 -13.53649 -71.94357 10816 ft 6 kts 208°
2026-05-06 18:24 -13.53664 -71.94409 10817 ft 11 kts 270°
2026-05-06 18:24 -13.53678 -71.94441 10817 ft 2 kts 194°
2026-05-06 18:25 -13.53712 -71.94428 10817 ft 8 kts 148°
2026-05-06 18:25 -13.53739 -71.94409 10817 ft 0 kts 146°